Regional Weather Roundup
Issued by NWS

Home | Current Version | Previous Version | Graphics & Text | Print | Product List | Glossary On
Versions: 1 2 3 4 5 6 7 8 9 10 11 12 13 14 15 16 17 18 19 20 21 22 23 24 25 26 27 28 29 30 31 32 33 34 35 36 37 38 39 40 41 42 43 44 45 46 47 48 49 50
000
ASUS43 KMPX 291210
RWRMN
WEATHER ROUNDUP FOR MINNESOTA
NATIONAL WEATHER SERVICE TWIN CITIES/CHANHASSEN MN
700 AM CDT FRI JUL 29 2016


NOTE: "FAIR" INDICATES FEW OR NO CLOUDS BELOW 12,000 FEET WITH NO
SIGNIFICANT WEATHER AND/OR OBSTRUCTIONS TO VISIBILITY. N/A MEANS
CURRENT SKY AND/OR WEATHER CONDITIONS ARE NOT AVAILABLE.

MNZ060>063-068>070-291300-
   Twin Cities Metro

CITY           SKY/WX    TMP DP  RH WIND       PRES   REMARKS
TWIN CITIES    CLOUDY    62  56  80 NE8       30.06S
6HR MIN TEMP:  61; 6HR MAX TEMP:  67;

ST PAUL        CLOUDY    62  57  83 CALM      30.07R
CRYSTAL        CLEAR     59  53  80 N6        30.06R
BLAINE         PTCLDY    57  57 100 NE3       30.07S
LAKEVILLE      CLOUDY    63  59  88 NE5       30.05S
EDEN PRAIRIE   CLOUDY    62  55  77 NE6       30.04S
6HR MIN TEMP:  61; 6HR MAX TEMP:  67;

LAKEVILLE      CLOUDY    63  59  88 NE5       30.05S
SOUTH ST PAUL  CLOUDY    63  56  80 N6        30.06S
LAKE ELMO      FAIR      61  55  82 NE5       30.08R
$$
MNZ001>005-007-008-013>017-022>024-027-028-291300-
   Northwest Minnesota

CITY           SKY/WX    TMP DP  RH WIND       PRES   REMARKS
BEMIDJI        CLEAR     52  52 100 CALM      30.10S
HALLOCK        CLEAR     54  52  94 CALM      30.08S
ROSEAU         CLEAR     54  48  82 CALM      30.10S
WARROAD        CLEAR     55  52  88 CALM      30.10S
THIEF RVR FALL CLEAR     56  53  90 CALM      30.10S
CROOKSTON      FOG       52  50  93 CALM      30.10S VSB 1/4
FOSSTON        PTCLDY    52  48  87 CALM      30.10S
DETROIT LAKES  CLEAR     61  59  94 CALM      30.11S
MOORHEAD       CLEAR     57  55  94 CALM      30.09S
PARK RAPIDS    MOCLDY    58  56  93 CALM      30.10S
MAHNOMEN       FAIR      55  55  99 CALM      30.09S
$$
MNZ006-009>011-018-025>026-291300-
   North Central Minnesota

CITY           SKY/WX    TMP DP  RH WIND       PRES   REMARKS
BAUDETTE       CLEAR     55  52  89 CALM      30.09S
FLAG ISLAND    CLEAR     66  57  72 NE3       30.08F
INTL FALLS     SUNNY     54  53  97 SE3       30.10F
6HR MIN TEMP:  47; 6HR MAX TEMP:  57;

WASKISH        CLEAR     55  54  94 CALM      30.09S FOG
BIG FORK       SUNNY     55  54  94 CALM      30.11S
LONGVILLE      PTCLDY    54  54 100 CALM      30.10S
GRAND RAPIDS   MOSUNNY   56  53  90 CALM      30.14S
CRANE LAKE     SUNNY     46  46 100 CALM      30.14S
ORR            SUNNY     54  48  82 CALM      30.10S
COOK           SUNNY     52  50  93 CALM      30.14R
WALKER         FAIR      53  53  99 CALM      30.10S
$$
MNZ012-019>021-037-291300-
   Northeast Minnesota

CITY           SKY/WX    TMP DP  RH WIND       PRES   REMARKS
DULUTH         MOSUNNY   55  52  89 NE3       30.12S
6HR MIN TEMP:  49; 6HR MAX TEMP:  55;

ELY            CLOUDY    50  48  93 CALM      30.14R
HIBBING        SUNNY     48  48 100 CALM      30.13R
EVELETH        PTSUNNY   53  52  97 CALM      30.14
DULUTH HARBOR  SUNNY     55  54  94 CALM      30.12S
TWO HARBORS    SUNNY     55  50  82 CALM      30.11R
SILVER BAY     SUNNY     50  48  93 CALM      30.11S
GRAND MARAIS     N/A     63  51  65 NW8       30.10S
G MARAIS ARPRT SUNNY     54  48  82 N5        30.15S
$$
MNZ029>031-032-039>041-046>048-054>057-064-291300-
   West Central Minnesota

CITY           SKY/WX    TMP DP  RH WIND       PRES   REMARKS
FERGUS FALLS   MOCLDY    61  61 100 SE3       30.10S
WHEATON        CLEAR     61  61 100 CALM      30.09S
MORRIS         CLEAR     59  57  94 CALM      30.09R
ALEXANDRIA     CLEAR     59  57  93 NW3       30.11R
ELBOW LAKE     FAIR      62  62  98 CALM      30.10R
WADENA         CLEAR     54  54 100 CALM      30.10S
GLENWOOD       CLEAR     57  55  94 CALM      30.11R
APPLETON       CLEAR     59  55  88 CALM      30.08S
BENSON         CLEAR     54  52  94 CALM      30.10R
ORTONVILLE     CLEAR     63  61  94 SE3       30.08S
MADISON        CLEAR     57  55  94 CALM      30.09R
WILLMAR        FAIR      55  55 100 SW3       30.11R
$$
MNZ033>034-036-042>043-049>051-058-059-291300-
   Central Minnesota

CITY           SKY/WX    TMP DP  RH WIND       PRES   REMARKS
ST CLOUD       CLEAR     56  54  93 CALM      30.09R
6HR MIN TEMP:  52; 6HR MAX TEMP:  60;

SAUK CENTRE    FAIR      57  55  92 CALM      30.10R
PAYNESVILLE    CLEAR     55  55 100 CALM      30.10R
AITKIN         PTCLDY    55  52  88 CALM      30.10S
PINE RIVER     CLEAR     54  54 100 CALM      30.13F
BRAINERD       CLEAR     59  56  89 E3        30.11S
STAPLES        CLEAR     55  54  94 CALM      30.10S
LONG PRAIRIE   FAIR      55  54  94 CALM      30.10R
LITTLE FALLS   CLEAR     55  52  88 CALM      30.09S
LITCHFIELD     CLEAR     59  57  94 NE5       30.09R
BUFFALO        CLEAR     58  54  86 N5        30.08S
MAPLE LAKE     CLEAR     58  56  93 N3        30.09S
HUTCHINSON     CLEAR     61  56  86 NE5       30.08S
$$
MNZ037-044-045-052-053-291300-
   East Central Minnesota

CITY           SKY/WX    TMP DP  RH WIND       PRES   REMARKS
PRINCETON      CLEAR     57  54  88 CALM      30.10R
MORA           CLEAR     54  52  94 CALM      30.12R
CAMBRIDGE      CLEAR     57  50  77 CALM      30.07S
RUSH CITY      SUNNY     55  52  90 E6        30.09S
MOOSE LAKE     SUNNY     52  52 100 CALM      30.10R
HINCKLEY       FAIR      54  54 100 CALM      30.11R
CLOQUET        MOSUNNY   52  48  87 CALM      30.12S
MCGREGOR       PTSUNNY   59  55  88 CALM      30.13R
$$
MNZ071>073-080-081-089-090-097-098-291300-
   Southwest Minnesota

CITY           SKY/WX    TMP DP  RH WIND       PRES   REMARKS
MONTEVIDEO     CLEAR     57  55  94 CALM      30.11R
GRANITE FALLS  CLEAR     56  55  97 CALM      30.10R FOG
CANBY          CLEAR     55  54  94 CALM      30.11R
MARSHALL       CLEAR     54  53  97 NW5       30.09R
REDWOOD FALLS  CLEAR     58  55  90 N6        30.07S
OLIVIA         CLEAR     55  54  94 N3        30.08R
PIPESTONE      CLEAR     54  52  94 CALM      30.09R
WINDOM         CLEAR     61  57  88 N5        30.07R
WORTHINGTON    CLEAR     57  55  93 N6        30.08R
JACKSON        CLOUDY    59  55  88 CALM      30.07R
TRACY          CLEAR     57  56  95 NW6       30.08S
SLAYTON        CLEAR     56  54  94 CALM      30.09R FOG
$$
MNZ065>067-074>077-082>085-091>093-291300-
   South Central Minnesota

CITY           SKY/WX    TMP DP  RH WIND       PRES   REMARKS
MANKATO        CLOUDY    63  55  77 N8        30.05R
NEW ULM        CLEAR     59  57  94 N6        30.06R
ST JAMES       MOCLDY    55  55 100 CALM      30.07R
FAIRMONT       MOCLDY    61  55  82 N6        30.04R
GLENCOE        CLEAR     59  58  96 N3        30.06S
FARIBAULT      MOCLDY    63  61  94 N5        30.05R
OWATONNA       MOCLDY    64  61  88 N6        30.05R
WASECA         CLOUDY    63  61  94 N7        30.05R
ALBERT LEA     CLOUDY    64  61  88 N9        30.03R
$$
MNZ078>079-086>088-094>096-291300-
   Southeast Minnesota

CITY           SKY/WX    TMP DP  RH WIND       PRES   REMARKS
ROCHESTER      LGT RAIN  63  61  93 NE12      30.04R FOG
6HR MIN TEMP:  63; 6HR MAX TEMP:  64; 6HR PCP:  0.02;

RED WING       MOSUNNY   63  59  88 N3        30.03S
STANTON        CLOUDY    64  61  88 NE6       30.03S
DODGE CENTER   CLOUDY   N/A N/A N/A NE7       30.04R
WINONA         CLOUDY    66  61  82 NE5       30.02S
AUSTIN         RAIN      63  59  88 N6        30.02R
PRESTON        CLOUDY    61  59  91 NE9       30.02R
$$
ABBREVIATIONS USED IN REMARKS
   TC - TEMPERATURES IN CELSIUS
  WCI - WIND CHILL INDEX
   HX - HEAT INDEX
  VSB - VISIBILITY
$$



USA.gov is the U.S. government's official web portal to all federal, state and local government web resources and services.